This demonstration page uses our WeatherBlox Daily Observations layout. Learn more.

Left ArrowRight Arrow

39.51506, -84.39828

Hourly Observations for June 18, 2020

Temp ( °F °C ) Dew Point ( °F °C ) Humidity (%) Winds ( mph kmh ) Pressure ( in mb ) Visibility ( mi km ) Precip ( " mm )
12:15 am 00:15 Partly Cloudy 62 16.7 57 13.8 83 83 N 3 6 30.11 1020 10 16.0934 0 0
12:35 am 00:35 Clear 61 16.2 56 13.3 83 83 Calm 30.11 1020 10 16.0934 0 0
12:55 am 00:55 Clear 61 16.2 56 13.4 84 84 Calm 30.1 1019 10 16.0934 0 0
1:15 am 01:15 Clear 61 15.9 56 13.4 85 85 Calm 30.09 1019 10 16.0934 0 0
1:35 am 01:35 Clear 60 15.4 56 13.4 88 88 Calm 30.1 1019 10 16.0934 0 0
1:55 am 01:55 Clear 60 15.6 56 13.1 85 85 Calm 30.09 1019 10 16.0934 0 0
2:15 am 02:15 Clear 59 15.2 56 13.5 90 90 Calm 30.09 1019 10 16.0934 0 0
2:35 am 02:35 Clear 59 15 56 13.3 90 90 Calm 30.08 1019 10 16.0934 0 0
2:55 am 02:55 Clear 60 15.4 56 13.5 89 89 Calm 30.08 1018 10 16.0934 0 0
3:15 am 03:15 Clear 58 14.7 56 13.3 91 91 Calm 30.08 1019 10 16.0934 0 0
3:35 am 03:35 Clear 58 14.3 56 13.2 93 93 Calm 30.07 1018 10 16.0934 0 0
3:55 am 03:55 Clear 59 15.2 56 13.6 90 90 Calm 30.07 1018 10 16.0934 0 0
4:15 am 04:15 Clear 60 15.6 58 14.4 93 93 Calm 30.07 1018 10 16.0934 0 0
4:35 am 04:35 Clear 58 14.5 57 13.7 95 95 Calm 30.07 1018 10 16.0934 0 0
4:55 am 04:55 Clear 58 14.5 56 13.6 94 94 Calm 30.07 1018 10 16.0934 0 0
5:15 am 05:15 Clear with Mist and Fog 57 14.1 56 13.3 95 95 Calm 30.07 1018 3.5 5.63269 0 0
5:35 am 05:35 Clear 58 14.2 56 13.6 96 96 Calm 30.07 1018 10 16.0934 0 0
5:55 am 05:55 Clear 57 13.8 56 13.1 96 96 Calm 30.07 1018 10 16.0934 0 0
6:15 am 06:15 Sunny 57 13.8 55 12.9 94 94 Calm 30.07 1018 10 16.0934 0 0
6:35 am 06:35 Sunny 58 14.2 56 13.2 94 94 Calm 30.07 1018 10 16.0934 0 0
6:55 am 06:55 Sunny with Mist and Fog 58 14.5 57 13.7 95 95 Calm 30.07 1018 7 11.26538 0 0
7:15 am 07:15 Sunny 58 14.4 57 13.7 96 96 Calm 30.08 1019 10 16.0934 0 0
7:35 am 07:35 Sunny 61 16.2 58 14.5 90 90 Calm 30.08 1019 10 16.0934 0 0
7:55 am 07:55 Sunny with Mist and Fog 64 17.5 59 15.2 86 86 Calm 30.09 1019 4 6.43736 0 0
8:15 am 08:15 Sunny 66 18.8 61 15.9 83 83 Calm 30.09 1019 10 16.0934 0 0
8:35 am 08:35 Sunny 67 19.6 60 15.8 79 79 Calm 30.09 1019 10 16.0934 0 0
8:55 am 08:55 Sunny 69 20.3 61 16.2 77 77 Calm 30.08 1019 10 16.0934 0 0
9:15 am 09:15 Sunny 71 21.6 61 16.1 71 71 NNE 3 6 30.1 1019 10 16.0934 0 0
9:35 am 09:35 Sunny 72 22 60 15.8 68 68 E 3 6 30.09 1019 10 16.0934 0 0
9:55 am 09:55 Sunny 72 22.2 60 15.3 65 65 E 5 7 30.09 1019 10 16.0934 0 0
10:15 am 10:15 Sunny 72 22.3 61 16 68 68 Calm 30.09 1019 10 16.0934 0 0
10:35 am 10:35 Mostly Cloudy 73 22.5 62 16.5 69 69 Calm 30.09 1019 10 16.0934 0 0
10:55 am 10:55 Partly Cloudy 73 22.7 61 16.1 66 66 NNE 3 6 30.09 1019 10 16.0934 0 0
11:15 am 11:15 Partly Cloudy 74 23.3 61 16.1 64 64 Calm 30.09 1019 10 16.0934 0 0
11:35 am 11:35 Mostly Cloudy 74 23.4 61 15.9 63 63 Calm 30.08 1019 10 16.0934 0 0
11:55 am 11:55 Cloudy 75 23.7 60 15.6 61 61 Calm 30.08 1018 10 16.0934 0 0
12:15 pm 12:15 Mostly Cloudy 76 24.5 63 17.2 64 64 NNE 7 11 30.07 1018 10 16.0934 0 0
12:35 pm 12:35 Cloudy with Haze 76 24.4 62 16.9 63 63 NNE 5 7 30.06 1018 5 8.0467 0 0
12:55 pm 12:55 Cloudy 75 24.1 62 16.6 63 63 N 3 6 30.06 1018 10 16.0934 0 0
1:15 pm 13:15 Partly Cloudy 77 25.1 64 17.6 63 63 WNW 5 7 30.05 1018 10 16.0934 0 0
1:35 pm 13:35 Cloudy 77 25.1 64 17.5 63 63 NNW 3 6 30.04 1017 10 16.0934 0 0
1:55 pm 13:55 Mostly Cloudy 78 25.6 62 16.9 59 59 NNW 6 9 30.03 1017 10 16.0934 0 0
2:15 pm 14:15 Partly Cloudy 81 27 63 17.3 55 55 ENE 6 9 30.02 1017 10 16.0934 0 0
2:35 pm 14:35 Cloudy 79 26.3 62 16.5 55 55 NNE 3 6 30.01 1016 10 16.0934 0 0
2:55 pm 14:55 Partly Cloudy 79 26 63 17 58 58 NNE 3 6 30.01 1016 10 16.0934 0 0
3:15 pm 15:15 Mostly Cloudy 82 28 63 17 51 51 NE 7 11 30.01 1016 10 16.0934 0 0
3:35 pm 15:35 Partly Cloudy 81 27.2 60 15.7 49 49 Calm 30 1016 10 16.0934 0 0
3:55 pm 15:55 Cloudy 80 26.9 62 16.5 53 53 NE 9 15 30 1016 10 16.0934 0 0
4:15 pm 16:15 Mostly Cloudy 80 26.9 61 16 51 51 N 3 6 29.99 1016 10 16.0934 0 0
4:35 pm 16:35 Mostly Cloudy 81 27.3 61 16 50 50 NNE 6 9 29.98 1015 10 16.0934 0 0
4:55 pm 16:55 Partly Cloudy 80 26.9 61 16.2 52 52 Calm 29.98 1015 10 16.0934 0 0
5:15 pm 17:15 Cloudy with Haze 82 28 61 16 48 48 ENE 20 31 29.99 1015 5 8.0467 0 0
5:35 pm 17:35 Cloudy with Light Thunderstorms 71 21.5 66 18.7 84 84 SE 3 6 30 1016 7 11.26538 0.05 1.27
5:55 pm 17:55 Mostly Cloudy 71 21.5 66 19 86 86 WSW 3 6 29.99 1016 10 16.0934 0.05 1.27
6:15 pm 18:15 Mostly Cloudy with Nearby Thunderstorms 71 21.6 67 19.6 88 88 SW 5 7 29.99 1016 10 16.0934 0 0
6:35 pm 18:35 Partly Cloudy 72 22.1 66 19.1 83 83 Calm 29.99 1016 10 16.0934 0 0
6:55 pm 18:55 Partly Cloudy 72 22.4 67 19.6 84 84 Calm 29.99 1016 10 16.0934 0 0
7:15 pm 19:15 Sunny with Nearby Thunderstorms 71 21.9 68 20.1 90 90 Calm 29.99 1016 10 16.0934 0 0
7:35 pm 19:35 Partly Cloudy 73 22.7 68 19.8 84 84 Calm 29.99 1016 10 16.0934 0 0
7:55 pm 19:55 Sunny with Nearby Thunderstorms 73 22.5 69 20.8 90 90 WSW 5 7 29.99 1016 10 16.0934 0 0
8:15 pm 20:15 Sunny 71 21.8 67 19.5 87 87 WSW 5 7 29.99 1016 10 16.0934 0 0
8:35 pm 20:35 Partly Cloudy 71 21.6 67 19.2 86 86 ESE 5 7 30 1016 10 16.0934 0 0
8:55 pm 20:55 Sunny 72 22.3 65 18.4 79 79 SSW 3 6 30 1016 10 16.0934 0 0
9:15 pm 21:15 Clear 71 21.6 66 18.7 84 84 S 3 6 29.99 1016 10 16.0934 0 0
9:35 pm 21:35 Clear 68 19.8 67 19.3 97 97 W 3 6 30.01 1016 10 16.0934 0 0
9:55 pm 21:55 Clear 68 20.1 66 19.1 94 94 Calm 30 1016 10 16.0934 0 0
10:15 pm 22:15 Clear 67 19.4 66 19 98 98 Calm 30.01 1016 10 16.0934 0 0
10:35 pm 22:35 Clear 67 19.2 66 18.8 98 98 Calm 30.02 1016 10 16.0934 0 0
10:55 pm 22:55 Cloudy 66 18.7 65 18.5 99 99 Calm 30.02 1017 10 16.0934 0 0
11:15 pm 23:15 Mostly Cloudy with Mist and Fog 65 18.5 65 18.4 99 99 Calm 30.03 1017 7 11.26538 0 0
11:35 pm 23:35 Cloudy with Mist and Fog 66 18.7 65 18.5 99 99 Calm 30.02 1017 3 4.82802 0 0
11:55 pm 23:55 Mostly Cloudy 66 18.7 65 18.6 99 99 Calm 30.03 1017 7 11.26538 0 0

Powered by AerisWeather